Location: Haulchin
(50.3172°N, 3.4360°E)
Time: 14:53:42
(UTC+00:00)

Cosmos 468 Rocket - Pass Details

Date: 23 May 2024
Orbit: 741 x 777 km, 74.0° (Epoch: 18 June)

Event Time Altitude Azimuth Distance (km) Brightness Sun altitude
Rises 00:39:17 0° 334° (NNW) 3,271 8.1 -18.0°
Reaches altitude 10° 00:41:42 10° 333° (NNW) 2,337 7.2 -17.9°
Maximum altitude 00:47:00 74° 249° (WSW) 808 4.0 -17.6°
Enters shadow 00:49:52 27° 170° (S) 1,436 4.9 -17.5°
